Cloud_Cover
0 0 0 0 0 0 0 0 16 6 3 0 0 5 5 66 11 100 100 100 32 19 69 5 90 55 19 0 0 0 0 0 0 0 0 0 0 0 0 0 0 0 0 0
0 0 0 0 0 0 0 0 10 21 5 0 0 8 0 30 4 91 100 100 76 98 15 6 48 100 76 1 0 0 0 0 0 0 0 0 0 0 38 5 2 0 0 0
0 0 0 0 0 0 0 0 7 68 6 2 0 48 60 85 0 31 36 68 97 33 41 8 35 23 100 91 22 0 0 0 0 0 0 0 0 0 58 8 1 0 3 0
0 0 0 0 0 0 0 0 0 47 5 0 0 0 1 58 100 35 5 71 37 5 6 16 36 5 14 86 100 100 9 10 0 0 0 0 0 0 3 0 0 0 3 3
0 0 0 0 0 0 0 0 0 0 5 0 0 0 0 0 3 5 49 98 100 74 50 66 50 5 5 5 10 100 4 82 8 0 0 0 0 0 0 0 0 5 1 19
0 0 0 0 0 0 0 0 0 0 5 5 0 0 0 50 38 5 7 5 95 94 51 5 97 96 5 4 66 13 0 0 96 0 0 0 0 0 0 0 0 4 0 0
0 0 0 0 0 0 0 0 0 0 1 0 0 0 0 0 1 0 5 5 7 100 21 13 56 58 39 4 5 1 0 0 24 40 0 0 0 0 0 0 0 0 0 0
0 0 0 0 0 0 0 0 0 0 0 0 0 0 0 0 5 5 0 0 1 51 5 42 7 3 3 0 0 4 0 0 0 37 0 0 0 0 0 0 0 0 0 0
0 0 0 0 0 0 0 0 0 0 0 0 0 0 0 0 0 4 0 0 0 100 5 5 69 6 0 5 1 0 0 0 0 0 0 0 0 0 0 0 0 0 0 0
0 0 0 0 0 0 0 0 0 0 0 0 0 0 0 0 0 0 0 0 0 88 96 77 5 48 5 18 4 7 3 0 0 0 0 0 0 0 0 0 0 0 0 0
0 0 0 0 0 0 0 0 0 0 0 0 0 0 0 0 0 0 39 37 22 3 100 100 90 5 38 39 100 5 6 0 0 0 1 18 0 0 0 0 0 0 0 0
100 64 0 0 0 0 0 0 0 0 0 0 0 0 0 0 0 68 100 94 54 0 0 24 82 5 79 99 99 50 75 4 6 9 0 23 36 0 0 0 0 0 0 0
100 59 5 0 0 0 0 0 0 0 0 0 0 0 0 0 0 42 100 100 54 65 18 3 96 82 5 100 100 100 21 3 0 0 0 17 41 0 0 0 0 0 0 0
100 100 54 5 2 0 0 0 0 0 0 0 0 0 0 0 14 3 38 100 100 87 100 100 95 40 13 99 100 99 90 43 2 0 0 8 48 1 0 0 0 0 0 0
92 100 100 91 9 5 4 0 0 0 0 0 0 0 0 0 14 8 4 21 66 99 100 97 100 100 99 91 100 100 100 96 13 5 7 0 0 3 0 0 0 0 0 0
100 100 100 100 89 93 35 5 5 0 0 0 0 0 0 0 0 0 0 0 86 62 6 90 100 100 100 100 100 100 100 98 82 5 12 5 0 0 5 0 0 0 0 0
100 100 100 39 5 13 6 5 5 5 5 3 0 0 0 0 0 0 0 0 0 0 0 0 60 100 100 100 100 100 100 100 95 82 5 5 5 1 5 5 100 14 0 0
100 100 100 100 18 4 0 1 2 1 3 5 3 0 0 0 0 9 8 0 0 0 0 0 0 32 100 100 100 88 100 100 100 97 14 5 5 4 45 5 7 100 86 0
25 63 100 100 100 79 6 3 0 0 0 0 0 0 0 0 0 0 0 0 0 0 0 0 0 1 100 100 100 24 100 100 100 100 99 87 27 12 44 58 5 5 93 68
46 63 5 46 86 84 100 98 7 2 8 8 0 0 1 0 0 0 0 0 0 0 0 0 35 4 11 100 100 89 63 100 100 100 91 100 100 100 100 38 60 89 77 100
17 6 4 5 5 4 4 5 6 24 42 72 7 0 6 6 4 0 0 0 1 5 0 0 16 55 5 71 100 100 65 89 75 99 100 100 100 100 100 100 75 57 68 100
3 29 94 56 42 6 0 0 1 8 5 3 1 0 3 18 0 0 0 0 4 0 0 0 0 1 5 29 93 100 92 15 84 100 100 100 100 100 100 98 100 100 95 100
5 5 5 5 4 0 0 0 0 0 4 5 5 14 70 11 0 0 1 0 0 0 0 0 0 0 5 59 77 80 100 79 67 86 100 100 100 100 100 100 100 100 79 100
5 5 24 6 1 0 0 0 0 4 5 6 16 61 100 100 100 75 0 0 0 0 0 0 0 0 2 44 86 98 99 64 61 58 100 80 100 100 100 100 100 100 100 100
5 6 14 11 2 1 0 0 0 3 5 11 99 100 100 100 100 100 56 61 1 0 0 0 0 0 0 5 58 97 98 82 50 10 85 100 100 100 100 100 100 84 100 100
4 6 14 5 2 3 0 0 0 0 0 5 14 41 73 100 100 100 100 98 21 7 0 0 0 0 0 2 4 70 92 44 90 100 100 100 100 100 100 100 100 56 100 100